Terug naar catalogus

STARLINK-6121

ActiefCommunicatieVLEO
NORAD 56129·PAYLOAD·🇺🇸 United States

Gelanceerd Mar 29, 2023 vanaf Cape Canaveral Space Force Station

Loading…

Volgende Passages (komende 24 uur)

TLE

VersSource: CelesTrak SupGP

Epoch: Sep 14, 2026, 21:28 UTC

1 56129C 23046AN  26257.89493056  .00001493  00000+0  54094-4 0  2573
2 56129  42.9996 107.2298 0001235 263.9167 278.5824 15.27568332    17

Volg STARLINK-6121 in realtime met AllMySat

Download on the App Store